GEFSCGP_con_prob3kmehi_264.txt.gz
EHI
0 0 0 0 0 0 0 0 1 1 1 1 0 1 3 6 7 6 5 6 7 6 6 8 13 17 16 11 8 6 6 4 3 2 3 3 2 2 3 4 5 7 7 6
0 0 0 0 0 0 0 0 1 1 0 0 1 1 3 4 5 5 4 5 6 7 8 11 14 17 17 13 9 7 7 7 6 5 5 2 1 1 2 3 4 5 5 5
0 0 0 0 0 0 0 0 0 0 0 0 1 2 3 3 3 3 2 3 6 8 11 15 18 20 19 17 13 10 9 10 10 10 8 4 1 0 2 3 4 5 6 6
0 0 0 0 0 0 0 0 0 0 0 0 1 1 3 4 2 2 2 3 6 9 11 15 20 23 22 21 20 18 15 14 13 13 12 8 3 1 2 5 6 7 8 10
0 0 0 0 0 0 0 0 0 0 0 0 0 1 3 3 2 2 3 4 7 10 10 12 18 23 24 24 26 26 23 18 14 14 13 10 5 3 4 5 8 9 10 10
0 0 0 0 0 0 0 0 0 0 0 0 0 1 2 2 2 2 4 6 9 11 12 12 17 22 25 27 30 33 31 22 16 14 13 11 8 6 6 7 8 10 10 9
0 0 0 0 0 0 0 0 0 0 0 0 0 0 1 1 1 2 4 7 10 12 14 15 19 24 27 30 33 36 36 29 21 18 16 14 12 11 9 9 10 11 9 7
0 0 0 0 0 0 0 0 0 0 0 0 0 0 0 0 0 1 4 9 11 14 16 18 22 27 30 33 37 39 38 35 29 25 23 21 18 16 12 11 11 10 7 5
0 0 0 0 0 0 0 0 0 0 0 0 0 0 0 0 0 1 5 11 14 15 19 21 23 27 31 35 39 41 41 40 37 33 30 26 23 20 16 13 11 7 5 4
0 0 0 0 0 0 0 0 0 0 0 0 0 0 0 0 0 2 7 12 16 17 20 22 22 24 27 33 39 43 44 43 41 37 33 28 24 22 19 17 14 9 5 3
0 0 0 0 0 0 0 0 0 0 0 0 0 0 0 1 2 4 8 13 16 17 20 21 20 20 24 31 40 44 44 43 41 38 35 30 26 24 22 21 17 12 6 4
0 0 0 0 0 0 0 0 0 0 0 0 0 0 1 3 6 9 13 16 19 20 21 20 19 20 25 32 40 44 45 44 41 38 36 34 32 28 24 20 16 12 8 6
0 0 0 0 0 0 0 0 0 0 0 0 0 0 3 6 10 14 17 20 23 25 24 21 20 22 27 33 41 46 47 46 42 38 36 36 35 30 25 20 14 10 8 7
0 0 0 0 0 0 0 0 0 0 0 0 1 2 6 9 13 16 19 22 25 28 29 26 24 25 28 35 43 48 49 47 44 39 37 36 33 29 25 20 14 10 8 8
0 0 0 0 0 0 0 0 0 0 0 2 3 5 8 12 15 18 22 27 30 32 34 34 32 30 31 37 45 51 51 49 46 43 40 36 32 27 22 18 14 10 9 9
0 0 0 0 0 0 0 0 0 1 2 4 6 8 13 19 21 22 26 33 38 39 40 41 38 35 35 41 47 50 51 50 48 47 43 38 32 26 22 18 14 12 12 11
0 0 0 0 0 0 0 0 0 1 3 5 8 12 20 25 25 25 31 39 42 42 43 43 40 38 39 43 47 49 50 50 49 48 44 38 33 29 25 21 19 17 16 16
0 0 0 0 0 0 0 0 0 1 3 6 11 18 24 27 28 30 35 42 43 41 40 40 40 42 43 43 47 50 51 51 49 47 43 38 35 31 27 23 23 22 21 19
0 0 0 0 0 0 0 0 0 1 4 8 15 21 25 28 32 34 38 42 42 39 37 38 41 46 47 45 47 50 52 51 47 43 40 36 32 30 26 24 23 23 22 21
0 0 0 0 0 0 1 1 2 3 6 10 17 22 25 27 30 31 35 39 40 38 36 38 43 48 49 46 46 49 49 46 41 37 34 29 25 23 23 22 21 21 21 20
0 0 0 0 0 0 1 2 3 4 7 11 18 23 25 25 25 27 31 35 37 37 37 39 42 45 45 44 45 46 44 39 35 31 27 22 17 15 16 18 18 17 18 18
0 0 0 0 0 1 2 3 4 5 7 13 18 23 25 25 25 27 29 31 33 35 36 37 39 40 40 40 40 40 37 31 26 22 20 17 12 9 10 13 14 15 15 15
0 0 0 1 2 4 5 5 5 6 9 15 20 24 26 26 27 27 26 27 29 30 32 34 34 35 36 36 35 33 27 22 18 15 14 12 10 8 8 10 12 13 14 14
0 0 1 4 6 7 7 8 8 10 13 18 23 26 28 29 28 26 25 24 25 26 27 28 28 29 30 30 29 24 20 16 14 12 10 8 6 7 8 9 10 11 12 13
0 0 1 5 7 8 8 9 11 14 17 21 24 26 27 26 24 23 22 22 22 22 21 21 21 21 23 23 21 17 14 13 11 10 7 5 4 5 7 8 8 8 9 10
0 0 1 4 6 7 8 10 12 15 19 22 23 25 25 20 17 17 18 19 20 20 18 18 17 18 19 19 16 12 11 11 10 8 5 4 3 4 5 7 7 6 7 8

GEFSCGP_con_prob3kmehi_270.txt.gz
EHI
0 0 0 0 0 0 0 0 1 0 0 0 1 2 4 5 4 3 3 2 1 2 2 2 2 3 4 5 4 2 1 0 0 0 0 0 0 0 1 2 2 1 1 0
0 0 0 0 0 0 0 1 1 1 0 0 1 2 3 5 5 3 2 1 1 2 1 1 2 4 5 5 4 2 1 0 0 0 0 0 0 0 0 1 1 1 1 2
0 0 0 0 0 0 0 1 1 1 0 0 1 1 1 3 5 3 1 0 1 1 1 1 3 5 6 5 4 2 1 0 1 1 1 1 1 0 0 0 0 0 2 4
0 0 0 0 0 0 0 0 0 0 0 0 0 0 0 1 2 2 2 1 0 0 0 2 5 7 6 5 4 3 1 1 2 2 2 2 2 1 0 0 0 0 1 3
0 0 0 0 0 0 0 0 0 0 0 0 0 0 0 0 0 1 1 1 0 0 1 3 6 8 8 7 6 4 2 2 3 3 3 3 3 2 1 0 0 0 0 1
0 0 0 0 0 0 0 0 0 0 0 0 0 0 0 0 0 0 0 0 0 1 2 3 5 8 9 9 8 5 2 1 3 3 4 4 4 3 2 2 2 1 0 1
0 0 0 0 0 0 0 0 0 0 0 0 0 0 0 0 0 0 0 1 1 3 4 4 5 7 10 11 9 5 1 1 3 4 5 6 7 5 4 4 4 2 1 2
0 0 0 0 0 0 0 0 0 0 0 0 0 0 0 0 0 0 1 2 3 4 4 5 6 7 9 11 9 5 2 2 3 5 6 7 7 5 3 4 3 2 2 2
0 0 0 0 0 0 0 0 0 0 0 0 0 0 0 0 0 1 3 4 4 3 4 4 4 5 7 10 11 9 7 6 6 6 6 6 6 4 2 2 2 2 2 2
0 0 0 0 0 0 0 0 0 0 0 0 0 0 0 0 0 2 5 5 4 4 4 3 3 3 5 8 11 12 12 11 10 7 5 6 5 4 3 2 3 3 3 2
0 0 0 0 0 0 0 0 0 0 0 0 0 0 0 0 1 3 5 5 4 5 5 4 3 4 5 7 9 11 13 12 10 6 4 5 5 6 6 5 5 4 4 3
0 0 0 0 0 0 0 0 0 0 0 0 0 0 0 0 1 3 4 4 4 5 4 4 5 6 7 7 7 9 11 10 7 5 4 4 5 5 5 5 4 4 4 4
0 0 0 0 0 0 0 0 0 0 0 0 0 0 1 1 2 2 3 2 3 4 4 5 6 7 7 8 9 10 11 10 7 6 7 7 5 4 3 3 3 4 5 5
0 0 0 0 0 0 0 0 0 0 0 0 0 0 1 1 1 2 3 4 4 4 5 7 8 8 9 9 10 11 13 12 11 11 12 12 9 6 4 4 5 5 4 5
0 0 0 0 0 0 0 0 0 0 1 1 1 1 1 2 3 4 7 8 7 6 7 10 11 10 10 10 11 12 14 15 16 17 18 16 13 10 8 8 8 7 5 5
0 0 0 0 0 0 0 0 0 0 1 2 3 3 3 4 7 10 11 11 9 8 9 12 12 10 10 11 12 14 18 22 23 22 21 18 15 14 13 11 10 10 9 7
0 0 0 0 0 0 0 0 0 0 1 2 4 4 5 7 11 13 12 12 11 11 11 13 12 10 11 12 16 21 26 31 30 25 22 19 17 16 15 13 12 12 12 12
0 0 0 0 0 0 0 0 0 0 0 1 2 4 5 8 11 12 12 13 13 13 15 16 15 14 14 16 22 28 34 36 33 27 22 19 18 16 15 13 13 13 13 14
0 0 0 0 0 0 0 0 0 0 1 1 2 3 7 10 12 11 12 13 14 15 17 18 18 17 16 19 26 32 36 36 32 27 24 20 17 15 13 12 12 12 12 13
0 0 0 0 0 0 0 0 0 0 2 3 3 5 9 13 12 11 12 14 16 18 19 19 18 17 18 22 29 34 36 34 29 26 25 22 19 16 12 11 10 10 11 11
0 0 0 0 0 0 0 0 0 0 1 3 4 6 10 12 11 12 16 18 19 21 22 20 19 19 21 25 31 35 34 30 26 23 22 20 19 16 12 10 9 9 9 10
0 0 0 0 0 0 0 1 1 1 1 3 5 7 10 10 10 13 19 23 25 25 24 23 23 23 24 26 30 33 30 24 20 19 17 14 13 12 11 10 10 9 9 9
0 0 0 1 1 1 2 2 3 3 3 5 7 9 11 11 12 15 20 24 26 25 23 22 24 24 24 25 27 28 24 18 15 14 12 9 8 8 9 10 11 10 8 8
0 0 0 1 2 2 3 3 4 5 7 8 11 13 14 13 14 15 18 21 21 19 17 18 19 21 21 23 24 23 19 13 10 9 8 7 6 7 7 8 9 8 7 6
0 0 0 1 1 2 3 3 4 7 9 11 13 15 15 15 15 14 14 15 16 14 14 14 15 16 18 19 20 18 15 11 8 7 6 7 6 6 6 6 5 5 4 4
0 0 0 0 0 1 2 2 5 8 11 12 14 16 16 15 14 14 12 13 13 13 13 13 14 14 17 18 17 16 13 11 9 7 6 6 6 5 4 4 4 3 3 3

GEFSCGP_con_prob3kmehi_276.txt.gz
EHI
0 0 0 0 0 0 0 0 0 0 0 0 0 1 2 4 4 4 5 5 5 7 7 5 5 4 3 4 5 5 5 7 7 6 6 5 2 2 2 2 4 4 2 3
0 0 0 0 0 0 0 0 0 0 0 0 0 0 2 4 4 4 5 5 6 7 6 5 5 3 2 3 5 6 7 8 8 8 7 6 4 2 1 2 4 5 4 3
0 0 0 0 0 0 0 0 0 0 0 0 0 0 2 3 4 4 5 6 8 8 6 4 5 4 3 3 5 6 7 8 9 9 9 9 8 5 3 3 5 6 4 3
0 0 0 0 0 0 0 0 0 0 0 0 0 0 1 3 3 3 5 8 11 9 6 4 4 5 5 4 5 6 8 9 10 10 9 10 10 8 6 5 6 5 4 2
0 0 0 0 0 0 0 0 0 0 0 0 0 0 1 2 3 3 5 8 12 11 7 5 4 4 6 6 7 9 11 12 12 11 11 11 10 9 7 6 6 4 3 3
0 0 0 0 0 0 0 0 0 0 0 0 0 0 0 1 2 2 4 8 12 13 9 7 5 5 8 9 10 12 15 16 14 13 13 13 12 9 7 6 5 4 3 4
0 0 0 0 0 0 0 0 1 0 0 0 0 0 0 0 1 3 5 9 12 12 9 7 7 8 10 13 14 15 19 20 18 16 14 14 12 9 8 7 6 4 4 3
0 0 0 0 0 0 0 0 0 0 0 0 0 0 0 1 2 3 7 12 13 10 7 6 7 9 11 14 16 18 22 24 23 19 16 13 10 9 9 10 8 6 5 4
0 0 0 0 0 0 0 0 0 0 0 0 0 0 0 1 3 5 10 13 13 10 6 5 6 8 10 13 16 19 24 26 23 20 17 14 11 10 11 12 12 10 7 6
0 0 0 0 0 0 0 0 0 0 0 0 0 0 1 2 4 8 13 15 13 9 5 4 4 6 8 12 15 19 23 24 22 18 15 14 13 13 13 14 14 11 8 7
0 0 0 0 0 0 0 0 0 0 0 0 0 0 2 3 5 11 16 17 14 8 5 4 5 6 10 13 16 18 22 23 20 17 14 14 15 15 15 14 12 10 8 7
0 0 0 0 0 0 0 0 0 0 0 0 0 0 2 3 6 11 16 17 14 9 6 7 9 11 15 18 18 19 22 23 20 17 17 18 18 18 16 13 11 10 9 8
0 0 0 0 0 0 0 0 0 0 0 0 0 1 3 5 7 11 15 16 13 11 10 13 17 19 22 23 23 23 24 24 22 19 19 19 18 18 16 14 12 11 11 10
0 0 0 0 0 0 0 0 0 0 0 0 1 2 4 7 9 13 16 15 13 12 15 20 24 26 27 28 29 28 27 26 26 25 21 19 19 19 18 15 13 11 10 10
0 0 0 0 0 0 0 0 0 0 0 0 1 3 4 6 10 15 16 16 15 17 21 25 28 31 32 33 35 34 30 29 31 30 25 23 24 23 21 17 13 9 8 8
0 0 0 0 0 0 0 0 0 0 0 0 2 3 3 5 10 14 15 16 18 21 26 30 32 34 37 39 40 39 36 35 34 33 30 27 27 26 23 18 14 10 9 8
0 0 0 0 0 0 0 0 0 0 0 0 2 3 3 5 9 13 15 16 18 22 27 32 35 36 40 43 43 42 40 37 35 33 30 27 26 25 23 20 18 16 14 13
0 0 0 0 0 0 0 0 1 1 0 1 3 3 3 4 7 10 13 14 15 20 24 29 33 35 38 42 44 42 40 37 35 33 31 29 27 25 24 24 24 23 20 19
0 0 0 0 0 0 0 0 1 1 1 2 4 4 3 3 5 8 10 11 12 17 23 25 28 32 36 40 44 45 44 42 39 37 35 33 30 28 28 28 28 28 27 24
0 0 0 0 0 0 0 0 1 1 1 3 4 4 4 5 6 10 14 13 13 18 24 24 27 32 37 40 44 46 49 49 46 42 38 35 34 32 32 31 30 30 28 26
0 0 0 0 0 0 0 0 0 1 3 5 6 5 6 8 12 18 22 19 17 20 24 25 30 36 40 42 43 45 47 48 46 42 37 35 34 34 34 33 30 29 27 25
0 0 0 0 0 0 1 2 4 6 7 8 8 8 10 13 17 24 27 23 20 22 24 27 32 37 39 41 42 42 43 42 40 38 35 32 32 32 32 31 29 28 26 24
0 0 0 0 0 1 3 6 9 10 9 9 10 10 12 15 20 25 28 25 23 25 27 28 31 34 35 36 38 39 40 39 36 34 32 30 30 29 29 28 26 23 21 19
1 1 1 1 1 2 6 10 12 12 11 10 10 13 15 17 22 27 28 27 27 28 29 29 30 31 31 32 34 37 39 38 34 32 30 29 28 26 25 24 22 18 15 13
2 2 3 4 5 7 10 12 13 13 13 12 13 17 20 21 25 28 29 30 32 32 31 30 29 29 29 29 30 33 35 35 32 30 28 28 26 24 21 20 18 14 11 9
2 3 5 7 9 11 13 14 13 14 14 15 16 20 23 23 26 28 30 32 35 35 32 30 30 29 27 26 27 31 32 31 29 28 26 25 25 23 19 17 13 9 7 6

GEFSCGP_con_prob3kmehi_282.txt.gz
EHI
0 0 0 0 0 0 0 0 0 0 0 0 0 0 1 2 2 3 5 10 15 17 17 17 14 13 17 24 28 25 18 16 18 16 13 13 15 17 17 18 16 12 10 10
0 0 0 0 0 0 0 0 0 0 0 0 0 0 0 1 1 2 5 11 16 18 19 20 17 16 21 28 32 28 21 20 21 20 18 17 18 17 16 17 16 13 11 11
0 0 0 0 0 0 0 0 0 0 0 0 0 0 0 0 0 1 5 9 14 18 22 23 22 22 25 31 34 31 29 27 25 22 20 18 17 16 15 18 19 15 12 11
0 0 0 0 0 0 0 0 0 0 0 0 0 0 0 0 0 1 4 8 13 18 23 25 25 25 27 31 36 39 39 36 30 23 18 16 15 15 17 21 22 19 14 11
0 0 0 0 0 0 0 0 0 0 0 0 0 0 0 0 1 2 5 9 13 18 22 25 26 27 27 29 38 45 48 45 37 26 19 15 15 17 19 22 24 22 17 13
0 0 0 0 0 0 0 1 1 1 0 0 0 0 0 1 3 5 8 12 14 17 23 26 28 29 28 29 35 45 54 53 44 33 25 21 20 19 19 21 22 22 19 16
0 0 0 0 0 0 0 1 1 1 0 0 0 0 1 3 5 9 12 14 15 18 23 28 31 32 32 31 35 48 58 58 50 40 34 30 26 21 19 19 20 21 20 18
0 0 0 0 0 0 0 0 0 0 0 0 0 1 4 6 7 10 13 14 16 18 22 27 30 31 31 32 38 50 60 61 55 49 44 40 32 24 19 19 18 18 19 18
0 0 0 0 0 0 0 0 0 0 0 0 0 2 5 8 8 10 12 14 16 16 19 23 25 27 28 32 38 47 57 62 59 55 52 48 38 27 22 20 19 18 18 18
0 0 0 0 0 0 0 0 0 0 0 0 0 1 5 8 8 9 13 16 17 16 17 20 22 24 28 33 36 43 54 60 60 57 54 49 42 33 26 23 21 21 20 19
0 0 0 0 0 0 0 0 0 0 0 0 0 2 4 7 7 10 15 20 20 18 17 18 19 23 30 34 36 43 53 57 56 53 51 48 45 39 31 26 25 24 23 22
0 0 0 0 0 0 0 0 0 0 0 0 1 3 5 6 7 11 17 22 23 20 19 19 20 26 34 38 40 47 54 55 53 51 49 47 46 42 35 32 30 30 28 26
0 0 0 0 0 0 0 0 0 0 0 0 1 3 5 6 8 12 17 22 22 21 22 25 29 37 44 46 48 53 56 56 54 52 49 46 45 43 39 36 36 37 35 31
0 0 0 0 0 0 0 0 0 0 0 0 1 3 4 6 9 14 18 20 20 22 27 35 45 52 54 56 57 58 57 56 55 54 51 47 45 45 41 37 37 39 38 35
0 0 0 0 0 0 0 0 0 0 0 1 2 3 4 7 11 15 19 21 20 23 30 43 56 62 63 63 63 61 59 58 57 56 53 49 47 47 45 41 39 39 38 36
0 0 0 0 0 0 0 0 0 0 1 2 2 3 5 9 13 17 19 22 23 25 31 43 57 64 66 66 65 62 62 61 60 58 55 51 48 47 45 43 42 41 39 38
1 1 1 0 0 0 0 0 0 1 2 2 3 4 6 11 15 16 18 22 24 26 32 41 53 61 64 64 65 65 64 64 62 59 56 52 49 46 43 42 42 42 40 39
2 3 3 1 0 0 0 0 1 2 3 3 3 5 8 11 14 15 18 22 25 28 33 41 50 55 58 60 62 65 65 63 61 60 55 52 50 48 44 42 43 43 41 39
2 4 2 0 0 0 0 0 1 3 3 4 5 6 7 8 10 14 20 25 28 33 39 45 46 48 53 57 60 63 63 62 60 58 54 52 51 49 48 46 45 45 42 39
2 2 1 0 0 0 0 0 1 3 4 5 5 5 7 8 10 17 26 32 37 42 46 47 45 46 51 58 61 62 61 62 61 58 55 54 52 51 50 48 47 46 44 40
1 1 1 0 1 1 0 0 2 6 9 8 5 5 7 10 14 24 34 40 43 46 47 47 46 47 52 58 62 63 62 61 62 61 60 58 53 50 48 48 47 46 43 40
0 0 2 3 3 3 3 3 7 14 17 12 7 5 7 11 18 28 38 41 42 43 45 46 46 48 52 56 61 63 62 60 60 60 60 57 52 46 44 45 46 45 43 40
1 1 4 7 8 7 7 8 11 16 17 13 8 5 6 11 20 30 37 39 40 42 44 45 46 48 53 56 58 61 61 59 58 58 56 52 47 42 41 42 42 42 41 39
3 3 6 9 11 10 9 9 11 13 13 11 8 6 7 12 23 32 37 40 43 44 45 46 48 50 54 55 55 58 59 56 55 54 51 46 41 38 38 39 38 38 38 35
4 4 6 8 10 10 10 9 9 10 10 9 9 10 12 16 25 32 37 39 41 44 46 48 50 52 53 52 52 53 54 52 49 47 44 39 35 33 33 32 29 27 26 24
3 4 5 7 9 10 12 11 10 9 10 8 9 12 16 20 26 33 36 36 37 42 47 49 51 50 49 49 49 49 49 47 44 41 38 33 31 30 29 25 20 16 14 12

GEFSCGP_con_prob3kmehi_288.txt.gz
EHI
0 0 0 0 0 0 0 0 0 0 0 0 0 1 1 1 5 9 11 10 9 7 7 10 13 14 13 9 8 8 8 6 4 2 2 5 6 5 2 1 3 3 4 4
0 0 0 0 0 0 0 0 0 0 0 0 0 0 0 1 4 8 12 12 10 8 8 11 15 17 15 12 9 8 8 6 4 3 4 5 6 5 3 2 3 2 2 2
0 0 0 0 0 0 0 0 0 0 0 0 0 0 1 2 4 8 13 15 13 10 9 12 17 20 19 15 12 10 10 9 7 7 7 7 7 6 4 4 3 1 0 0
0 0 0 0 0 0 0 0 0 0 0 0 0 1 2 3 5 8 13 16 16 13 10 10 15 20 20 17 13 11 12 13 11 11 11 11 9 7 6 5 3 1 1 1
0 0 0 0 0 0 0 0 0 0 0 0 0 1 2 4 6 8 12 16 18 15 11 9 12 17 19 18 15 13 15 15 13 12 13 12 11 8 6 5 4 3 2 2
0 0 0 0 0 0 0 0 0 0 0 0 0 1 2 4 6 9 13 17 18 16 12 9 11 16 19 20 20 20 19 18 15 13 12 11 10 9 6 4 3 3 4 5
0 0 0 0 0 0 0 0 0 0 0 0 0 1 3 4 7 10 13 16 17 16 12 10 12 16 20 22 25 26 25 21 18 15 12 11 9 7 4 3 3 4 6 7
0 0 0 0 0 0 0 0 0 0 0 0 0 1 3 5 8 11 12 13 14 14 11 10 12 17 21 24 29 31 29 25 20 16 13 10 8 5 2 1 2 4 6 6
0 0 0 0 0 0 0 0 0 0 0 0 0 1 3 5 7 9 10 11 12 12 10 10 12 18 22 26 31 34 32 27 22 17 13 9 6 3 1 1 2 4 4 4
0 0 0 0 0 0 0 0 0 0 0 0 0 1 2 4 5 8 9 11 12 12 10 10 13 19 24 28 32 35 34 29 25 20 14 10 7 5 4 4 6 6 5 3
0 0 0 0 0 0 0 0 0 0 0 0 0 1 2 3 5 6 8 10 12 13 11 11 12 17 24 30 35 37 37 34 31 27 20 16 14 10 7 8 9 7 5 3
0 0 0 0 0 0 0 0 0 0 0 0 0 1 2 3 5 6 7 9 11 13 13 11 12 15 22 31 38 42 43 40 37 32 27 24 20 13 10 9 7 5 4 3
0 0 0 0 0 0 0 0 0 0 0 0 0 1 2 4 5 6 7 9 10 12 13 15 17 19 23 32 40 46 47 44 40 34 31 28 24 18 13 9 6 4 3 4
0 0 0 0 0 0 0 0 0 0 0 0 0 0 1 3 3 4 5 8 10 13 16 20 24 26 28 33 41 46 47 45 41 37 33 31 27 22 17 11 7 4 4 5
0 0 0 0 0 0 0 0 0 0 0 0 0 1 1 1 1 3 6 9 13 15 19 23 26 28 30 34 40 44 46 45 42 38 35 32 28 25 21 15 9 7 7 7
0 0 0 0 0 0 0 0 0 0 0 0 1 2 1 0 1 4 9 13 16 19 22 24 25 26 29 33 38 43 45 44 41 38 35 32 29 27 24 18 12 10 10 10
0 0 0 0 0 0 0 0 0 0 0 0 1 2 1 1 2 5 9 14 18 23 25 25 24 24 26 29 35 40 42 41 40 38 34 30 29 29 26 21 15 12 12 13
0 0 0 0 0 1 1 0 0 0 1 1 2 2 3 3 5 6 7 11 17 24 27 27 26 26 27 28 30 33 37 39 38 37 33 29 28 29 29 26 20 16 15 16
0 0 0 0 0 1 1 0 0 1 3 4 4 5 6 7 8 7 7 10 17 25 28 30 33 33 32 31 29 31 34 36 36 35 33 30 30 31 32 30 25 21 20 20
0 0 0 0 0 1 1 1 0 2 5 7 7 8 9 9 9 9 11 15 21 26 29 33 37 39 37 33 32 35 36 34 33 32 31 30 30 32 33 33 29 26 26 25
0 0 0 0 0 0 1 2 1 1 5 7 7 9 9 8 9 12 16 21 26 29 30 32 36 37 36 35 35 37 37 33 30 29 28 28 29 31 32 32 30 28 28 26
0 0 0 0 0 0 1 2 1 1 4 6 7 7 7 7 11 17 22 25 29 31 31 31 33 33 33 35 36 36 35 32 29 27 26 27 29 29 30 30 29 27 25 23
1 1 1 1 1 1 2 3 3 3 4 6 6 6 6 8 13 19 23 26 30 31 29 30 32 33 33 34 35 34 31 28 27 26 24 24 25 24 25 26 27 25 22 20
2 3 3 4 4 4 5 6 6 6 6 6 6 7 9 12 16 20 23 25 28 29 27 27 32 34 34 34 33 30 27 26 26 26 23 20 19 19 20 21 22 22 20 19
3 4 5 6 6 7 7 8 8 7 6 6 6 8 12 16 19 21 23 23 24 26 26 26 30 33 32 31 28 25 25 26 25 24 22 18 16 16 17 16 15 14 14 14
3 4 5 6 6 6 7 8 7 7 6 6 6 8 12 17 20 21 21 21 22 25 26 26 29 31 30 28 25 22 23 24 24 22 20 18 16 16 16 14 10 7 7 7

GEFSCGP_con_prob3kmehi_294.txt.gz
EHI
0 0 0 0 0 0 0 0 0 0 0 0 0 0 2 5 8 8 7 7 7 3 1 2 2 1 1 0 0 0 0 0 0 0 0 0 0 0 0 0 0 0 0 0
0 0 0 0 0 0 0 0 0 0 0 0 0 0 2 4 6 7 7 8 8 5 3 4 5 3 2 1 1 1 1 1 0 0 1 0 0 0 0 0 0 0 0 0
0 0 0 0 0 0 0 0 0 0 0 0 0 0 2 4 4 4 6 8 9 7 5 6 7 5 3 3 2 3 3 2 1 2 3 3 1 1 2 1 0 0 0 1
0 0 0 0 0 0 0 0 0 0 0 0 0 0 2 3 3 2 3 7 9 9 6 6 7 6 4 3 4 4 4 3 2 4 6 6 4 2 3 3 2 1 1 2
0 0 0 0 0 0 0 0 0 0 0 0 0 0 1 3 2 1 1 5 10 10 7 5 7 6 4 3 4 5 4 2 2 5 7 7 6 4 4 4 3 2 3 3
0 0 0 0 0 0 0 0 0 0 0 0 0 0 1 2 2 0 1 4 8 9 6 4 5 6 5 3 4 5 4 2 3 6 8 8 7 6 5 4 3 3 2 2
0 0 0 0 0 0 0 0 0 0 0 0 0 0 1 2 2 1 1 3 6 7 5 4 5 5 4 3 4 6 6 4 4 6 8 8 7 6 6 4 3 2 1 1
0 0 0 0 0 0 0 0 0 0 0 0 0 1 2 3 3 3 3 4 6 6 4 3 3 4 3 2 3 5 7 6 6 6 7 7 6 6 5 4 3 2 1 1
0 0 0 0 0 0 0 0 0 0 0 0 1 2 3 3 4 4 4 4 5 5 4 2 1 3 3 3 3 4 6 7 9 9 8 7 5 4 3 3 2 1 1 1
0 0 0 0 0 0 0 0 0 0 0 0 1 2 3 3 3 4 3 3 3 4 3 1 1 2 4 4 4 3 5 8 10 11 9 7 4 1 1 1 1 0 0 1
0 0 0 0 0 0 0 0 0 0 0 0 0 1 1 3 3 3 3 2 2 3 2 1 1 2 4 5 5 4 6 9 11 12 11 7 3 0 0 0 0 0 0 0
0 0 0 0 0 0 0 0 0 0 0 0 0 0 1 2 3 3 3 2 3 3 3 1 0 1 3 4 6 7 9 11 13 13 11 8 4 1 1 1 0 0 0 0
0 0 0 0 0 0 0 0 0 0 0 0 0 0 1 3 3 2 2 2 3 4 4 2 0 1 3 4 7 10 13 16 16 15 12 8 5 3 3 2 1 1 0 0
0 0 0 0 0 0 0 0 0 0 0 0 0 0 2 3 3 1 0 1 2 4 5 3 1 1 3 6 9 14 19 20 19 17 13 9 6 6 5 3 3 2 2 2
0 0 0 0 0 0 0 0 0 0 0 0 0 0 1 2 2 1 1 1 2 3 3 3 2 2 4 8 12 17 23 24 23 21 16 11 8 7 6 4 3 4 4 5
0 0 0 0 0 0 0 0 0 0 0 0 0 0 0 1 2 2 2 2 3 3 2 2 3 4 6 10 14 19 25 27 26 23 18 13 10 9 7 5 3 4 6 6
0 0 0 0 0 0 0 0 0 0 0 0 0 0 0 1 2 2 2 3 3 3 3 3 4 6 8 11 14 20 25 28 27 23 18 14 12 10 7 5 4 5 6 7
0 0 0 0 0 0 0 0 0 0 0 0 1 1 0 1 3 3 3 3 3 3 3 4 5 7 10 12 15 21 26 28 27 22 16 14 12 9 6 6 6 7 8 9
0 0 0 0 0 0 0 0 0 0 0 1 2 2 1 1 3 4 3 3 3 3 3 4 7 11 14 15 18 23 26 28 25 21 17 14 12 9 7 7 8 9 11 11
0 0 0 0 0 0 0 1 1 0 0 1 2 3 2 2 2 2 2 1 1 3 4 5 9 13 15 17 21 25 25 24 22 20 18 17 16 13 10 8 8 9 9 10
0 0 0 0 0 0 1 2 2 1 0 1 3 4 4 3 2 2 2 2 2 4 5 6 10 13 14 15 20 23 22 20 19 18 18 19 19 18 14 12 10 9 9 9
0 0 0 0 0 0 1 2 2 1 1 2 3 5 5 5 4 5 6 6 5 6 8 9 12 13 11 12 17 19 19 19 20 19 19 20 20 18 16 14 12 11 10 10
0 0 0 1 1 0 0 1 1 0 1 2 3 5 6 6 6 8 9 10 8 7 9 12 15 16 13 12 15 17 19 21 23 22 21 19 18 17 16 15 14 14 13 12
0 0 1 2 2 1 0 0 0 0 1 2 4 5 5 5 5 7 9 10 9 8 9 12 16 17 16 15 15 17 20 23 24 23 20 17 15 15 15 14 15 16 17 16
0 0 1 2 2 2 1 1 1 1 2 3 5 5 4 4 4 6 8 9 9 9 10 12 14 15 16 16 16 16 19 22 22 21 18 15 13 14 14 13 12 13 14 14
0 0 0 1 1 1 2 2 2 2 3 5 5 4 4 4 5 6 7 8 9 10 12 12 13 14 14 15 15 15 17 20 20 19 16 14 12 13 13 11 9 8 8 8